User: anonymous   Login
Location: Ash Swamp
(41.5170°N, 74.6157°W)
Time: 21:18:47
(UTC+00:00)
Language:

Cosmos 1331 Rocket - Orbit

View from above orbital plane
View from above orbital plane
View from above satellite
View from above satellite

Ground track
Ground track

The orbit data is extracted from the following two-line orbital elements,

1 13028U 82001B   20269.39040222  .00000011  00000-0  12215-4 0  9993
2 13028  74.0434 344.9316 0018754 132.1421 228.1330 14.38405007 29122
Epoch (UTC): 25 September 2020 09:22:10
Eccentricity: 0.0018754
inclination: 74.0434°
perigee height: 750 km
apogee height: 777 km
right ascension of ascending node: 344.9316°
argument of perigee: 132.1421°
revolutions per day: 14.38405007
mean anomaly at epoch: 228.1330°
orbit number at epoch: 2912

The dashed part of the orbit path shows where the satellite is in the earth's shadow,  

DLR